Location: Holkham
(52.9500°N, 0.8167°E)
Time: 22:02:08
(UTC+00:00)

Cosmos 1975 - Pass Details

Date: 19 May 2025
Orbit: 487 x 506 km, 82.5° (Epoch: 12 June)

Event Time Altitude Azimuth Distance (km) Brightness Sun altitude
Rises 22:43:16 0° 349° (NNW) 2,578 8.1 -15.5°
Reaches altitude 10° 22:45:23 10° 349° (N) 1,689 6.7 -15.6°
Maximum altitude 22:49:05 88° 77° (ENE) 496 2.5 -15.8°
Enters shadow 22:50:35 34° 168° (SSE) 818 3.1 -15.8°
